Overview Statistics Trail Chart Weather Telemetry Raw packets
 

This is the latest recevied weather packets stored in our database for station/object N2VUZ-1. If no packets are shown the sender has not sent any weather packets the latest 10 day(s).

<< 26 27 28 29 30 31 32 >>
Time Temp. Humidity Pressure Rain* Wind** Luminosity Snow
1788104961 27.78° C 67% 1021.3 hPa 0 mm - - -
1788104661 27.78° C 64% 1021.3 hPa 0 mm - - -
1788104361 27.78° C 66% 1021.5 hPa 0 mm - - -
1788104061 27.22° C 70% 1021.4 hPa 0 mm - - -
1788103761 27.78° C 68% 1021.6 hPa 0 mm - - -
1788103461 27.78° C 68% 1021.4 hPa 0 mm - - -
1788103161 27.78° C 67% 1021.5 hPa 0 mm - - -
1788102861 27.22° C 68% 1021.5 hPa 0 mm - - -
1788102561 27.22° C 69% 1021.7 hPa 0 mm - - -
1788102261 27.22° C 70% 1021.5 hPa 0 mm - - -
1788101961 27.22° C 69% 1021.5 hPa 0 mm - - -
1788101661 26.67° C 70% 1021.5 hPa 0 mm - - -
1788101361 26.67° C 69% 1021.3 hPa 0 mm - - -
1788101061 26.11° C 71% 1021.7 hPa 0 mm - - -
1788100761 26.67° C 71% 1021.6 hPa 0 mm - - -
1788100461 26.67° C 71% 1021.7 hPa 0 mm - - -
1788100161 26.67° C 71% 1021.7 hPa 0 mm - - -
1788099861 26.67° C 73% 1021.9 hPa 0 mm - - -
1788099561 26.11° C 72% 1021.7 hPa 0 mm - - -
1788099261 26.11° C 75% 1021.8 hPa 0 mm - - -
1788098961 25.56° C 73% 1021.7 hPa 0 mm - - -
1788098661 25.56° C 73% 1021.8 hPa 0 mm - - -
1788098361 25.56° C 74% 1021.8 hPa 0 mm - - -
1788098061 25.56° C 76% 1021.8 hPa 0 mm - - -
1788097761 25° C 76% 1021.8 hPa 0 mm - - -

* Rain latest hour (hover to see other rain measurements)
** Current wind speed in m/s (hover to see current wind gust speed)